Regional Weather Roundup
Issued by NWS

Home | Current Version | Previous Version | Graphics & Text | Print | Product List | Glossary On
Versions: 1 2 3 4 5 6 7 8 9 10 11 12 13 14 15 16 17 18 19 20 21 22 23 24 25 26 27 28 29 30 31 32 33 34 35 36 37 38 39 40 41 42 43 44 45 46 47 48 49 50
000
ASUS43 KMKX 301900
RWRWI

WISCONSIN REGIONAL WEATHER ROUNDUP
NATIONAL WEATHER SERVICE MILWAUKEE/SULLIVAN WI
200 PM CDT WED JUL 30 2014

NOTE: "FAIR" INDICATES FEW OR NO CLOUDS BELOW 12,000 FEET WITH NO
SIGNIFICANT WEATHER AND/OR OBSTRUCTIONS TO VISIBILITY.

WIZ001-002-006>008-014>016-023>028-302000-
NORTHWEST WISCONSIN

CITY           SKY/WX    TMP DP  RH WIND       PRES   REMARKS
SUPERIOR ARPT  MOSUNNY   76  63  62 W8        30.00F
ASHLAND        SUNNY     73  56  54 SW6G16    30.01F
HAYWARD        SUNNY     72  54  53 VRB3      30.04F
SIREN          SUNNY     76  58  54 W7        30.05F
RICE LAKE      SUNNY     72  55  54 W5        30.08F
LADYSMITH      SUNNY     70  53  54 W3        30.08F
EAU CLAIRE     NOT AVBL
MENOMONIE      PTCLDY    76  56  49 CALM      30.05F
NEW RICHMOND   PTSUNNY   76  58  53 W6        30.07S
OSCEOLA        MOSUNNY   76  60  57 NW3       30.08F
$$

WIZ003>005-009-010-017-018-302000-
NORTH CENTRAL WISCONSIN

CITY           SKY/WX    TMP DP  RH WIND       PRES   REMARKS
WOODRUFF       MOSUNNY   74  53  48 W8        30.04F
RHINELANDER    SUNNY     70  49  47 NW9       30.05F
EAGLE RIVER    MOSUNNY   68  47  47 W5        30.03F
LAND O LAKES   PTSUNNY   70  46  42 NW9       30.03F
PHILLIPS       SUNNY     69  52  54 W5        30.05F
TOMAHAWK       MOSUNNY   69  50  50 W7        30.06F
MEDFORD        SUNNY     69  50  51 W5        30.06F
MERRILL        SUNNY     69  51  51 NW5       30.05F
$$

WIZ029-030-035-036-043>047-302000-
CENTRAL WISCONSIN

CITY           SKY/WX    TMP DP  RH WIND       PRES   REMARKS
WAUSAU         SUNNY     71  47  42 N9        30.03F
MOSINEE        MOSUNNY   72  45  37 NW9       30.06F
MARSHFIELD     MOSUNNY   74  51  44 N10       30.06F
STEVENS POINT  MOSUNNY   71  46  40 NW12      30.05F
WAUPACA        MOSUNNY   77  47  35 W5        30.04S
WAUTOMA        NOT AVBL
WISC RAPIDS    MOSUNNY   75  47  36 VRB7      30.06F
CAMP DOUGLAS   NOT AVBL
$$

WIZ011>013-019>022-031-037>040-048>050-302000-
NORTHEAST WISCONSIN

CITY           SKY/WX    TMP DP  RH WIND       PRES   REMARKS
ANTIGO         MOSUNNY   70  49  48 NW9       30.05F
STURGEON BAY   SUNNY     66  48  52 N3        30.03F
GREEN BAY      SUNNY     72  52  49 NW5       30.02F
MANITOWOC      NOT AVBL
APPLETON       PTSUNNY   70  52  52 NW5       30.05F
CLINTONVILLE   MOSUNNY   73  46  38 W6        30.03S
OSHKOSH        MOSUNNY   73  51  46 VRB6      30.04S
$$

WIZ032>034-041-042-053>061-302000-
SOUTHWEST WISCONSIN

CITY           SKY/WX    TMP DP  RH WIND       PRES   REMARKS
LA CROSSE      SUNNY     76  58  53 NW7       30.06F
SPARTA         SUNNY     71  55  57 CALM      30.07F
VIROQUA        FAIR      72  55  54 NW7       30.08S
BOSCOBEL       SUNNY     81  53  37 N9        30.05F HX  80
PRAIRIE DU CHI MOSUNNY   77  53  43 N8        30.06S
PLATTEVILLE    PTSUNNY   75  57  53 NW8       30.07S
$$

WIZ056-057-062-063-064-067-068-302000-
SOUTH CENTRAL WISCONSIN

CITY           SKY/WX    TMP DP  RH WIND       PRES   REMARKS
BARABOO/DELLS  PTSUNNY   73  50  44 CALM      30.06F
LONE ROCK      NOT AVBL
WATERTOWN      MOSUNNY   71  58  63 W7        30.04F
MADISON        MOSUNNY   74  56  53 N9        30.05F
MIDDLETON      FAIR      74  55  51 N3        30.06F
MONROE         MOSUNNY   73  55  53 W3        30.05S
JANESVILLE     PTSUNNY   75  54  46 NW9       30.03F
$$

WIZ051-052-058>065-066-070>072-302000-
SOUTHEAST WISCONSIN

CITY           SKY/WX    TMP DP  RH WIND       PRES   REMARKS
MILWAUKEE      MOSUNNY   68  58  70 E8        30.05S
WAUKESHA       MOSUNNY   70  55  60 SW6       30.05F
MILWAUKEE/TIMM MOSUNNY   70  55  60 CALM      30.04F
RACINE         SUNNY     70  58  65 NE9       30.06F
BURLINGTON     MOSUNNY   69  57  65 N6        30.05S
KENOSHA        MOSUNNY   73  59  61 VRB5      30.04F
FOND DU LAC    MOSUNNY   72  54  53 VRB3      30.04F
SHEBOYGAN      MOSUNNY   73  51  46 NW6       30.03F
WEST BEND      CLOUDY    68  54  60 N7G17     30.04S
JUNEAU         PTSUNNY   69  55  61 CALM      30.06S
$$

LSZ147-162-302000-
LAKE SUPERIOR

STATION/POSITION TIME  TEMP    WIND        PRES    WAVE
                       AIR SEA DIR/SP/G            HT/PER
                 (UTC) (F)     (DEG/KT/KT) (MB)    (FT/S)
W MID LAKE BUOY  1750   48 42  220/ 12/ 14 1015.5F   1
PORT WING        1800   69     240/  6/ 11 1016.6F
SAXON HARBOR     1840          240/  3/  9 1016.3F
$$

LMZ867-665-643>646-302000-
LAKE MICHIGAN

STATION/POSITION TIME  TEMP    WIND        PRES    WAVE
                       AIR SEA DIR/SP/G            HT/PER
                 (UTC) (F)     (DEG/KT/KT) (MB)    (FT/S)
N MID LAKE BUOY  1750   52 55  200/  4/  4 1016.3F   1
NORTHPORT PIER   1800   65     330/  4/  4 1016.3F
SISTER BAY       1810   72     320/  6/  6   N/A
KEWAUNEE LAKESHO 1800   59     160/  5/  5 1017.9F
SHEBOYGAN LAKESH 1800   61     130/  8/  8 1017.5F
PORT WASHINGTON  1800   65      90/  5/  6 1017.9F
ATWATER BUOY     1800   62      50/  6     1018.6F
MILWAUKEE LAKESH 1800   62      50/  8/  9   N/A
S MID LAKE BUOY  1750   59 61  300/  8/ 10 1017.5F   1
KENOSHA   LAKESH 1800   62      40/ 13/ 14 1017.3S
$$

TC  - TEMPERATURE IN CELSIUS
VSB - VISIBILITY IN STATUTE MILES
WCI - WIND CHILL INDEX
HX  - HEAT INDEX




USA.gov is the U.S. government's official web portal to all federal, state and local government web resources and services.